Home   Weather   Chilliwack   Past weeks
Flag for Canada

Past Weather in Chilliwack, British Columbia, Canada — Yesterday and Last 2 Weeks

Now
48 °F

Cool.


Feels Like: 48 °F
Forecast: 55 / 46 °F
Wind: 1 mph from Northeast

Location: Agassiz

Current Time: Oct 23, 2019 at 7:49:37 pm

Latest Report: Oct 23, 2019 at 7:00 pm


Visibility: N/A

Pressure: 30.45 "Hg

Humidity: 91%

Dew Point: 46 °F

Location of ChilliwackLocation

Past Weather in Chilliwack — Graph

°F

Chilliwack Temperature Yesterday

Maximum temperature yesterday: 56 °F (at 4:00 pm)
Minimum temperature yesterday: 44 °F (at 11:00 pm)
Average temperature yesterday: 51 °F

High & Low Weather Summary for the Past Weeks

 TemperatureHumidityPressure
High60 °F (Oct 11, 4:00 pm)100% (Oct 14, 6:00 am)30.51 "Hg (Oct 14, 6:00 am)
Low37 °F (Oct 23, 5:00 am)28% (Oct 9, 2:00 pm)29.54 "Hg (Oct 17, 7:00 pm)
Average49 °F80%30.02 "Hg
* Reported Oct 8 6:00 pm — Oct 23 6:00 pm, Chilliwack. Weather by CustomWeather, © 2019

Note: Actual official high and low records may vary slightly from our data, if they occured in-between our weather recording intervals... More about our weather records

Advertising

Chilliwack Weather History for the Previous 24 Hours

Scroll right to see more
 ConditionsComfort  
Time TempWeatherWind HumidityBarometerVisibility
6:00 pm
Wed, Oct 23
52 °FCool.No wind82%30.46 "HgN/A
5:00 pm54 °FCool.1 mph76%30.46 "HgN/A
4:00 pm54 °FCool.2 mph68%30.47 "HgN/A
3:00 pm57 °FRefreshingly cool.1 mph57%30.47 "HgN/A
2:00 pm56 °FCool.5 mph60%30.48 "HgN/A
1:00 pm56 °FCool.2 mph62%30.50 "HgN/A
12:00 pm53 °FCool.2 mph64%30.50 "HgN/A
11:00 am51 °FCool.5 mph62%30.51 "HgN/A
10:00 am49 °FCool.2 mph72%30.50 "HgN/A
9:00 am47 °FCool.6 mph72%30.51 "HgN/A
8:00 am39 °FChilly.3 mph96%30.50 "HgN/A
7:00 am38 °FChilly.3 mph97%30.48 "HgN/A
6:00 am46 °FCool.7 mph87%30.46 "HgN/A
5:00 am37 °FChilly.1 mph99%30.46 "HgN/A
4:00 am38 °FChilly.1 mph99%30.46 "HgN/A
3:00 am40 °FQuite cool.2 mph99%30.45 "HgN/A
2:00 am39 °FChilly.1 mph98%30.44 "HgN/A
1:00 am41 °FQuite cool.1 mph98%30.45 "HgN/A
12:00 am40 °FQuite cool.No wind96%30.45 "HgN/A
11:00 pm
Tue, Oct 22
44 °FQuite cool.2 mph94%30.43 "HgN/A
10:00 pm44 °FQuite cool.3 mph90%30.42 "HgN/A
9:00 pm48 °FCool.2 mph81%30.39 "HgN/A
8:00 pm51 °FCool.2 mph77%30.38 "HgN/A
7:00 pm50 °FCool.1 mph82%30.37 "HgN/A
Weather by CustomWeather, © 2019

See weather overview